Location: Mahannah Oil Field
(37.4664°N, 96.6003°W)
Time: 20:43:07
(UTC+00:00)

S-56A Canister/Altair - Visible Passes

Search period start: 19 January 2021 00:00
Search period end: 29 January 2021 00:00
Orbit: 633 x 2499 km, 38.9° (Epoch: 18 January)

Date Brightness Start Highest point End Pass type
(mag) Time Alt. Az. Time Alt. Az. Time Alt. Az.
19 Jan 7.3 11:40:03 62° WNW 11:40:54 80° N 11:47:09 10° E visible
20 Jan 7.8 11:09:12 61° ENE 11:09:12 61° ENE 11:14:04 10° E visible
21 Jan 9.1 10:38:19 29° ENE 10:38:19 29° ENE 10:41:05 10° ENE visible
21 Jan 7.7 12:35:45 17° WNW 12:39:41 84° N 12:46:40 10° E visible
22 Jan 10.2 10:07:26 14° ENE 10:07:26 14° ENE 10:08:13 10° ENE visible
22 Jan 7.5 12:04:52 34° WNW 12:07:03 80° N 12:13:26 10° E visible
23 Jan 7.2 11:33:58 69° NW 11:34:28 77° N 11:40:19 10° E visible
24 Jan 8.1 11:03:05 51° ENE 11:03:05 51° ENE 11:07:18 10° E visible
24 Jan 8.0 13:00:46 10° W 13:05:42 63° SSW 13:12:39 10° ESE visible
25 Jan 9.4 10:32:12 24° E 10:32:12 24° E 10:34:23 10° E visible
25 Jan 7.7 12:29:37 19° W 12:33:06 69° SSW 12:39:30 10° ESE visible
26 Jan 10.3 10:01:19 11° E 10:01:19 11° E 10:01:34 10° E visible
26 Jan 7.4 11:58:44 38° W 12:00:32 75° SSW 12:06:27 10° ESE visible
27 Jan 7.1 11:27:52 81° SW 11:27:59 82° SSW 11:33:29 10° ESE visible
28 Jan 8.3 10:57:01 43° ESE 10:57:01 43° ESE 11:00:34 10° ESE visible
28 Jan 8.7 12:54:42 10° W 12:59:00 32° SSW 13:04:32 10° SE visible
